Overview Statistics Trail Chart Weather Telemetry Raw packets
 

This is the latest recevied weather packets stored in our database for station/object 4S6DRJ-13. If no packets are shown the sender has not sent any weather packets the latest 10 day(s).

<< 26 27 28 29 30 31 32 >>
Time Temp. Humidity Pressure Rain* Wind** Luminosity Snow
1788406007 29.44° C 78% 1010.5 hPa 0 mm 0 m/s 828 W/m² -
1788405946 29.44° C 77% 1010.5 hPa 0 mm 2.24 m/s, 218° 743 W/m² -
1788405885 29.44° C 76% 1010.6 hPa 0 mm 1.79 m/s, 273° 175 W/m² -
1788405824 29.44° C 76% 1010.6 hPa 0 mm 1.79 m/s, 113° 213 W/m² -
1788405763 30° C 76% 1010.4 hPa 0 mm 1.79 m/s, 305° 325 W/m² -
1788405702 30° C 76% 1010.4 hPa 0 mm 1.79 m/s, 324° 350 W/m² -
1788405641 30° C 76% 1010.4 hPa 0 mm 1.34 m/s, 354° 781 W/m² -
1788405580 30° C 76% 1010.4 hPa 0 mm 0.89 m/s, 116° 745 W/m² -
1788405519 30° C 75% 1010.5 hPa 0 mm 1.79 m/s, 214° 708 W/m² -
1788405457 30° C 76% 1010.6 hPa 0 mm 2.24 m/s, 238° 184 W/m² -
1788405396 30° C 77% 1010.6 hPa 0 mm 0.45 m/s, 236° 768 W/m² -
1788405351 29.44° C 77% 1010.7 hPa 0 mm 0.89 m/s, 286° 463 W/m² -
1788405275 29.44° C 77% 1010.6 hPa 0 mm 1.34 m/s, 296° 711 W/m² -
1788405213 29.44° C 78% 1010.7 hPa 0 mm 0.45 m/s, 232° 702 W/m² -
1788405153 29.44° C 79% 1010.6 hPa 0 mm 0.89 m/s, 258° 675 W/m² -
1788405092 29.44° C 79% 1010.6 hPa 0 mm 1.34 m/s, 253° 680 W/m² -
1788405031 29.44° C 79% 1010.7 hPa 0 mm 1.79 m/s, 127° 665 W/m² -
1788404970 28.89° C 80% 1010.7 hPa 0 mm 0 m/s 669 W/m² -
1788404908 28.89° C 80% 1010.6 hPa 0 mm 0.45 m/s, 98° 558 W/m² -
1788404848 28.89° C 80% 1010.6 hPa 0 mm 1.34 m/s, 156° 595 W/m² -
1788404786 28.89° C 80% 1010.4 hPa 0 mm 1.34 m/s, 222° 638 W/m² -
1788404726 28.89° C 81% 1010.7 hPa 0 mm 1.79 m/s, 178° 633 W/m² -
1788404664 28.89° C 81% 1010.5 hPa 0 mm 1.79 m/s, 235° 635 W/m² -
1788404603 28.89° C 83% 1010.6 hPa 0 mm 1.79 m/s, 253° 627 W/m² -
1788404543 28.89° C 84% 1010.5 hPa 0 mm 0.89 m/s, 233° 637 W/m² -

* Rain latest hour (hover to see other rain measurements)
** Current wind speed in m/s (hover to see current wind gust speed)